Time,TemperatureF,DewpointF,PressureIn,WindDirection,WindDirectionDegrees,WindSpeedMPH,WindSpeedGustMPH,Humidity,HourlyPrecipIn,Conditions,Clouds,dailyrainin,SoftwareType,DateUTC
2013-06-24 00:29:00,71.6,67.2,29.85,SSW,192,0.0,2.0,86,0.07,,,0.02,Wunderground v.1.15,2013-06-24 05:29:00,
2013-06-24 01:29:00,70.9,67.2,29.83,WSW,243,0.0,0.0,88,0.00,,,0.02,Wunderground v.1.15,2013-06-24 06:29:00,
2013-06-24 01:59:00,69.8,67.1,29.84,SSE,163,3.0,4.0,91,0.00,,,0.02,Wunderground v.1.15,2013-06-24 06:59:00,
2013-06-24 02:28:00,68.6,66.5,29.84,SSE,155,1.0,1.0,93,0.00,,,0.02,Wunderground v.1.15,2013-06-24 07:28:00,
2013-06-24 02:59:00,68.1,66.3,29.84,SSE,155,0.0,0.0,94,0.00,,,0.02,Wunderground v.1.15,2013-06-24 07:59:00,
2013-06-24 03:28:00,67.4,65.9,29.84,SSE,155,0.0,0.0,95,0.00,,,0.02,Wunderground v.1.15,2013-06-24 08:28:00,
2013-06-24 03:58:00,67.1,65.6,29.84,SSE,155,0.0,0.0,95,0.00,,,0.02,Wunderground v.1.15,2013-06-24 08:58:00,
2013-06-24 04:29:00,66.8,65.6,29.84,SSE,155,0.0,0.0,96,0.00,,,0.02,Wunderground v.1.15,2013-06-24 09:29:00,
2013-06-24 05:59:00,65.8,64.9,29.85,ESE,123,2.0,2.0,97,0.00,,,0.03,Wunderground v.1.15,2013-06-24 10:59:00,
2013-06-24 06:28:00,66.3,65.4,29.86,SE,132,0.0,1.0,97,0.00,,,0.03,Wunderground v.1.15,2013-06-24 11:28:00,
2013-06-24 06:59:00,66.9,66.0,29.87,NE,38,0.0,0.0,97,0.00,,,0.03,Wunderground v.1.15,2013-06-24 11:59:00,
2013-06-24 07:29:00,68.1,66.9,29.87,East,94,0.0,0.0,96,0.00,,,0.03,Wunderground v.1.15,2013-06-24 12:29:00,
2013-06-24 07:59:00,69.8,67.4,29.86,SSE,154,0.0,0.0,92,0.00,,,0.03,Wunderground v.1.15,2013-06-24 12:59:00,
2013-06-24 08:29:00,71.8,67.7,29.87,SSW,192,1.0,1.0,87,0.00,,,0.03,Wunderground v.1.15,2013-06-24 13:29:00,
2013-06-24 08:59:00,74.4,67.8,29.85,ESE,123,0.0,0.0,80,0.00,,,0.03,Wunderground v.1.15,2013-06-24 13:59:00,
2013-06-24 09:29:00,75.8,67.3,29.85,ESE,116,4.0,4.0,75,0.00,,,0.03,Wunderground v.1.15,2013-06-24 14:29:00,
2013-06-24 09:59:00,76.7,67.8,29.85,ESE,109,4.0,4.0,74,0.00,,,0.03,Wunderground v.1.15,2013-06-24 14:59:00,
2013-06-24 10:29:00,78.1,66.2,29.86,SE,143,4.0,4.0,67,0.00,,,0.03,Wunderground v.1.15,2013-06-24 15:29:00,
2013-06-24 10:59:00,79.2,67.3,29.86,SSE,151,5.0,9.0,67,0.00,,,0.03,Wunderground v.1.15,2013-06-24 15:59:00,
2013-06-24 11:28:00,79.6,67.7,29.85,ESE,112,4.0,4.0,67,0.00,,,0.03,Wunderground v.1.15,2013-06-24 16:28:00,
2013-06-24 11:59:00,79.9,67.1,29.84,SE,144,9.0,9.0,65,0.00,,,0.03,Wunderground v.1.15,2013-06-24 16:59:00,
2013-06-24 12:29:00,79.0,69.2,29.85,SE,142,7.0,7.0,72,0.00,,,0.03,Wunderground v.1.15,2013-06-24 17:29:00,
2013-06-24 12:59:00,78.5,68.3,29.86,SSE,148,7.0,7.0,71,0.00,,,0.03,Wunderground v.1.15,2013-06-24 17:59:00,
2013-06-24 13:29:00,77.6,69.0,29.85,South,189,5.0,5.0,75,0.00,,,0.03,Wunderground v.1.15,2013-06-24 18:29:00,
2013-06-24 13:59:00,77.6,67.4,29.83,SSW,197,6.0,14.0,71,0.00,,,0.03,Wunderground v.1.15,2013-06-24 18:59:00,
2013-06-24 14:29:00,77.7,68.0,29.82,SSE,163,6.0,6.0,72,0.00,,,0.03,Wunderground v.1.15,2013-06-24 19:29:00,
2013-06-24 14:58:00,77.4,68.5,29.80,SE,140,3.0,3.0,74,0.00,,,0.03,Wunderground v.1.15,2013-06-24 19:58:00,
2013-06-24 15:28:00,77.7,68.4,29.78,ESE,119,4.0,4.0,73,0.00,,,0.03,Wunderground v.1.15,2013-06-24 20:28:00,
2013-06-24 15:59:00,77.9,67.7,29.78,SSE,150,2.0,4.0,71,0.00,,,0.03,Wunderground v.1.15,2013-06-24 20:59:00,
2013-06-24 16:29:00,78.1,67.9,29.79,South,169,3.0,3.0,71,0.00,,,0.03,Wunderground v.1.15,2013-06-24 21:29:00,
2013-06-24 18:28:00,77.6,64.0,29.80,SW,221,3.0,4.0,63,0.00,,,0.03,Wunderground v.1.15,2013-06-24 23:28:00,
2013-06-24 18:58:00,77.2,65.4,29.78,SE,137,1.0,1.0,67,0.00,,,0.03,Wunderground v.1.15,2013-06-24 23:58:00,
2013-06-24 19:28:00,76.3,65.8,29.76,SE,146,3.0,3.0,70,0.00,,,0.03,Wunderground v.1.15,2013-06-25 00:28:00,
2013-06-24 19:58:00,75.3,64.4,29.78,SW,233,2.0,4.0,69,0.00,,,0.03,Wunderground v.1.15,2013-06-25 00:58:00,
2013-06-24 20:28:00,74.0,63.6,29.78,SE,142,2.0,3.0,70,0.00,,,0.03,Wunderground v.1.15,2013-06-25 01:28:00,
2013-06-24 20:58:00,72.8,62.8,29.77,SSE,150,1.0,1.0,71,0.00,,,0.03,Wunderground v.1.15,2013-06-25 01:58:00,
2013-06-24 21:28:00,72.0,63.3,29.79,SW,215,0.0,2.0,74,0.00,,,0.03,Wunderground v.1.15,2013-06-25 02:28:00,
2013-06-24 21:58:00,71.6,62.9,29.79,SW,234,0.0,0.0,74,0.00,,,0.03,Wunderground v.1.15,2013-06-25 02:58:00,
2013-06-24 22:58:00,69.8,63.3,29.79,South,180,1.0,1.0,80,0.00,,,0.03,Wunderground v.1.15,2013-06-25 03:58:00,
2013-06-24 23:29:00,68.4,63.4,29.80,SSE,150,1.0,1.0,84,0.00,,,0.03,Wunderground v.1.15,2013-06-25 04:29:00,
2013-06-24 23:59:00,68.3,63.9,29.81,SSE,150,0.0,0.0,86,0.00,,,0.03,Wunderground v.1.15,2013-06-25 04:59:00,